Location: Lower Kingswood
(51.2667°N, 0.2167°W)
Time: 19:40:25
(UTC+00:00)

ATLAS 3B R/B - Pass Details

Date: 26 September 2023
Orbit: 954 x 1241 km, 63.8° (Epoch: 01 December)

Event Time Altitude Azimuth Distance (km) Brightness Sun altitude
Rises 03:43:50 0° 315° (NW) 4,105 5.6 -20.4°
Reaches altitude 10° 03:46:33 10° 315° (NW) 3,165 5.0 -20.0°
Maximum altitude 03:54:15 84° 230° (SW) 1,250 2.9 -18.9°
Drops below altitude 10° 04:02:03 10° 143° (SE) 3,198 5.4 -17.8°
Sets 04:04:49 0° 142° (SE) 4,149 6.0 -17.4°
